Location: Zerbst
(51.9650°N, 12.0766°E)
Time: 11:46:26
(UTC+02:00)

ISS - Pass Details

Date: 16 May 2017
Orbit: 401 x 407 km, 51.6° (Epoch: 25 September)

Event Time Altitude Azimuth Distance (km) Brightness Sun altitude
Exits shadow 04:05:18 - 259° (W) 1,612 -1.3 -9.1°
Reaches altitude 10° 04:05:37 10° 259° (W) 1,487 -1.4 -9.1°
Maximum altitude 04:08:57 81° 172° (S) 423 -3.8 -8.7°
Drops below altitude 10° 04:12:16 10° 85° (E) 1,480 -0.2 -8.4°
Sets 04:14:21 0° 85° (E) 2,339 0.9 -8.2°
